Volver al catálogo

NOAA 17 DEB

ActivoPO
NORAD 48707·DEBRIS·🇺🇸 United States

Lanzado Jun 24, 2002 desde Vandenberg Space Force Base

Loading…

Próximos Pases (próximas 24 horas)

TLE

ActualizadoSource: Space-Track

Época: Sep 14, 2026, 11:02 UTC

1 48707U 02032AQ  26257.46006682  .00007752  00000-0  97045-3 0  9996
2 48707  98.7605 335.0550 0032391  13.9733 346.2366 14.82214808292100

Sigue NOAA 17 DEB en tiempo real con AllMySat

Download on the App Store